Location: Wavehorne
(51.0500°N, 0.8333°E)
Time: 15:10:00
(UTC+00:00)

Cosmos 990 Rocket - Pass Details

Date: 20 June 2021
Orbit: 747 x 768 km, 74.0° (Epoch: 01 August)

Event Time Altitude Azimuth Distance (km) Brightness Sun altitude
Rises 00:11:06 0° 335° (NNW) 3,230 8.4 -15.5°
Reaches altitude 10° 00:13:29 10° 337° (NNW) 2,297 7.5 -15.4°
Maximum altitude 00:18:43 80° 65° (ENE) 773 4.0 -15.4°
Enters shadow 00:22:33 18° 151° (SSE) 1,769 5.4 -15.3°
